Location: Ferchesar
(52.6477°N, 12.4298°E)
Time: 03:40:39
(UTC+01:00)

Tiros 1 despin weight - Visible Passes

Search period start: 04 December 2021 00:00
Search period end: 14 December 2021 00:00
Orbit: 593 x 641 km, 48.2° (Epoch: 03 December)

Date Brightness Start Highest point End Pass type
(mag) Time Alt. Az. Time Alt. Az. Time Alt. Az.
04 Dec ? 18:07:39 10° W 18:11:19 26° SSW 18:14:55 10° SSE visible
05 Dec ? 16:42:13 10° W 16:46:21 39° SSW 16:50:28 10° SE visible
05 Dec ? 18:24:09 10° WSW 18:27:07 18° SSW 18:30:06 10° S visible
06 Dec ? 16:58:23 10° W 17:02:17 31° SSW 17:06:11 10° SE visible
06 Dec ? 18:41:33 10° WSW 18:42:49 11° SW 18:44:05 10° SSW visible
07 Dec ? 17:14:42 10° W 17:18:08 22° SSW 17:21:34 10° SSE visible
08 Dec ? 17:31:24 10° WSW 17:33:54 15° SW 17:36:24 10° S visible
11 Dec ? 16:38:50 10° WSW 16:40:39 12° SW 16:42:29 10° SSW visible
